Flag for Morocco Weather past 2 weeks in Casablanca, Morocco

Now
66 °F

Scattered clouds.


Feels Like: 66 °F
Forecast: 60 / 68 °F
Wind: N/A

Location: Casablanca Airport

Current Time: Apr 19, 2015 at 11:31:44 AM

Latest Report: Apr 19, 2015 at 11:00 AM


Visibility: N/A

Pressure: 30.04 "Hg

Humidity: 60%

Dew point: 52 °F

Location of CasablancaLocation

Historic Weather in Casablanca — Graph

°F

Casablanca temperature yesterday

Maximum temperature yesterday: 68 °F (at 1:00 PM)
Minimum temperature yesterday: 61 °F (at 12:00 AM)
Average temperature yesterday: 64 °F

Past Weeks' High & Low Weather Summary

 TemperatureHumidityPressure
High70 °F (Apr 4, 1:00 PM)100% (Apr 13, 9:00 AM)30.18 "Hg (Apr 13, 9:00 AM)
Low55 °F (Apr 6, 6:00 AM)56% (Apr 11, 4:00 PM)29.77 "Hg (Apr 4, 11:00 AM)
Average64 °F77%29.99 "Hg
* Reported Apr 4 10:00 AM — Apr 19 10:00 AM, Casablanca, Weather by CustomWeather, © 2015

Note: Actual official high and low records may vary slightly from our data, if they occured in-between our weather recording intervals... More about our weather records

Advertising

Casablanca weather history for previous 24 hours

 ConditionsComfort  
Time TempWeatherWind HumidityBarometerVisibility
10:00 AM
Sun, Apr 19
63 °FBroken clouds.N/A68%30.01 "Hg5 mi
9:00 AM63 °FBroken clouds.N/A68%30.01 "Hg5 mi
8:00 AM63 °FBroken clouds.N/A68%29.98 "Hg5 mi
7:00 AM63 °FBroken clouds.N/A68%29.98 "Hg5 mi
6:00 AMN/APartly sunny.N/AN/A29.98 "Hg5 mi
1:00 AM63 °FPassing clouds.N/A68%30.07 "Hg5 mi
12:00 AM63 °FPassing clouds.N/A68%30.07 "Hg5 mi
11:00 PM
Sat, Apr 18
63 °FPassing clouds.N/A73%30.07 "Hg5 mi
10:00 PM63 °FPassing clouds.N/A77%30.07 "Hg5 mi
9:00 PM63 °FPassing clouds.N/A73%30.04 "HgN/A
8:00 PM63 °FPassing clouds.N/A83%30.01 "HgN/A
7:00 PM64 °FPartly sunny.N/A78%30.01 "HgN/A
6:00 PM66 °FPartly sunny.N/A73%30.01 "HgN/A
5:00 PM66 °FPartly sunny.N/A73%30.01 "HgN/A
4:00 PM66 °FPartly sunny.N/A73%30.01 "HgN/A
3:00 PM66 °FScattered clouds.N/A68%30.01 "HgN/A
2:00 PM68 °FScattered clouds.N/A69%30.01 "HgN/A
1:00 PM68 °FScattered clouds.N/A69%30.01 "HgN/A
12:00 PM66 °FScattered clouds.N/A64%30.04 "HgN/A
11:00 AM64 °FBroken clouds.N/A73%30.04 "HgN/A
Weather by CustomWeather, © 2015

See weather overviewHow to use our weather pages